Weather History for Niagara Falls, NY

Change the Weather History Date:

Wednesday, June 6, 2012

  Actual Average Record
Temperature  
Mean Temperature 62 °F -  
Max Temperature 73 °F 71 °F 89 °F (2008)
Min Temperature 50 °F 51 °F 42 °F (1998)
Degree Days  
Heating Degree Days 4    
Growing Degree Days 12 (Base 50)    
Moisture  
Dew Point 52 °F    
Average Humidity 75    
Maximum Humidity 94    
Minimum Humidity 49    
Precipitation  
Precipitation 0.00 in - - ()
Sea Level Pressure  
Sea Level Pressure 29.98 in    
Wind  
Wind Speed 5 mph (SW)    
Max Wind Speed 15 mph    
Max Gust Speed -    
Visibility 9 miles    
Events Rain    
Averages and records for this station are not official NWS values.
T = Trace of Precipitation, MM = Missing Value Source: NWS Daily Summary

Daily Weather History Graph

Daily Weather History Graph

Search for Another Location

Airport:

Trip Planner

Search our weather history database for the weather conditions in past years. The results will help you decide how hot, cold, wet, or windy it might be!

Date:

Astronomy

Jun. 06, 2012 Rise Set
Actual Time 5:36 AM EDT 8:52 PM EDT
Civil Twilight 5:01 AM EDT 9:27 PM EDT
Nautical Twilight 4:16 AM EDT 10:12 PM EDT
Astronomical Twilight 3:21 AM EDT 11:08 PM EDT
Moon 11:00 PM EDT (6/6) 7:57 AM EDT (6/6)
Length of Visible Light 16h 25m
Length of Day
15h 15m
Waning Gibbous, 93% of the Moon is Illuminated
Jun 6
Waning Gibbous
Jun 11
Last Quarter
Jun 19
New
Jun 26
First Quarter
Jul 3
Full

Hourly Weather History & Observations

Time (EDT) Temp. Dew Point Humidity Pressure Visibility Wind Dir Wind Speed Gust Speed Precip Events Conditions
12:53 AM 53.1 °F 46.9 °F 80% 29.99 in 10.0 mi Calm Calm - N/A   Clear
1:53 AM 50.0 °F 46.0 °F 86% 29.99 in 10.0 mi Calm Calm - N/A   Clear
2:53 AM 51.1 °F 46.9 °F 86% 29.98 in 10.0 mi Calm Calm - N/A   Mostly Cloudy
3:53 AM 50.0 °F 46.4 °F 87% 29.97 in 9.0 mi Calm Calm - N/A   Partly Cloudy
4:53 AM 51.1 °F 48.0 °F 89% 29.97 in 8.0 mi Calm Calm - N/A   Partly Cloudy
5:53 AM 50.0 °F 46.9 °F 89% 29.99 in 9.0 mi Calm Calm - N/A   Scattered Clouds
6:53 AM 55.0 °F 53.1 °F 93% 29.99 in 7.0 mi SW 8.1 mph - N/A   Overcast
7:02 AM 55.4 °F 53.6 °F 94% 29.98 in 7.0 mi SW 9.2 mph - N/A   Mostly Cloudy
7:34 AM 55.4 °F 53.6 °F 94% 29.98 in 7.0 mi SSW 6.9 mph - 0.01 in Rain Light Rain
7:44 AM 55.4 °F 53.6 °F 94% 29.99 in 7.0 mi SSW 6.9 mph - 0.01 in   Mostly Cloudy
7:49 AM 57.2 °F 53.6 °F 88% 29.99 in 7.0 mi SW 6.9 mph - 0.01 in Rain Light Rain
7:53 AM 57.0 °F 54.0 °F 89% 29.99 in 7.0 mi SSW 8.1 mph - N/A Rain Light Rain
8:13 AM 57.2 °F 55.4 °F 94% 29.98 in 7.0 mi SW 8.1 mph - 0.00 in   Mostly Cloudy
8:53 AM 60.1 °F 54.0 °F 80% 30.00 in 10.0 mi SSW 6.9 mph - 0.00 in   Mostly Cloudy
9:53 AM 64.9 °F 54.0 °F 68% 29.99 in 10.0 mi WSW 9.2 mph - N/A   Scattered Clouds
10:53 AM 68.0 °F 52.0 °F 56% 29.99 in 10.0 mi SW 11.5 mph - N/A   Scattered Clouds
11:53 AM 71.1 °F 52.0 °F 51% 29.98 in 10.0 mi SW 9.2 mph - N/A   Scattered Clouds
12:53 PM 70.0 °F 53.1 °F 55% 29.97 in 10.0 mi SSW 9.2 mph - N/A   Scattered Clouds
1:53 PM 69.1 °F 52.0 °F 54% 29.97 in 10.0 mi SSW 10.4 mph - N/A   Scattered Clouds
2:53 PM 72.0 °F 53.1 °F 51% 29.95 in 10.0 mi SSW 11.5 mph - N/A   Scattered Clouds
3:53 PM 71.1 °F 53.1 °F 53% 29.94 in 10.0 mi South 10.4 mph - N/A   Scattered Clouds
4:53 PM 73.4 °F 53.6 °F 50% 29.93 in 10.0 mi SSW 15.0 mph - N/A   Scattered Clouds
5:53 PM 73.4 °F 53.6 °F 50% 29.92 in 10.0 mi SW 10.4 mph - N/A   Scattered Clouds
6:53 PM 70.0 °F 50.0 °F 49% 29.94 in 10.0 mi West 13.8 mph - N/A   Scattered Clouds
7:21 PM 66.2 °F 50.0 °F 56% 29.96 in 10.0 mi NNW 15.0 mph - 0.00 in Rain Light Rain
7:53 PM 60.8 °F 53.6 °F 77% 29.98 in 10.0 mi North 10.4 mph - N/A Rain Light Rain
8:53 PM 61.0 °F 53.1 °F 75% 30.00 in 10.0 mi Calm Calm - 0.00 in Rain Light Rain
9:06 PM 60.8 °F 53.6 °F 77% 29.98 in 10.0 mi SW 4.6 mph - 0.00 in   Mostly Cloudy
9:28 PM 60.8 °F 53.6 °F 77% 29.98 in 10.0 mi SW 4.6 mph - 0.00 in Rain Light Rain
9:39 PM 60.8 °F 51.8 °F 72% 29.97 in 10.0 mi SW 3.5 mph - 0.00 in   Mostly Cloudy
9:53 PM 59.0 °F 53.1 °F 81% 29.99 in 10.0 mi NNE 3.5 mph - 0.00 in   Mostly Cloudy
10:53 PM 57.2 °F 51.8 °F 82% 29.99 in 10.0 mi Calm Calm - N/A   Scattered Clouds
11:53 PM 53.1 °F 51.1 °F 93% 29.99 in 10.0 mi West 4.6 mph - N/A   Clear